www.pogodaiklimat.ru

Погода и климат >> Архив погоды >> Мексика >> Culiacan


ПОГОДА в Culiacan

  • Прогноз погоды в Culiacan
  • Монитор погоды в Culiacan
  • Климат города

АРХИВ ПОГОДЫ в Culiacan

Время (UTC), дата Ветер
(напр.,м/с)
 
Видим.   Явления Облачность Т
(С)
Тd
(С)
f
(%)
Тe
(С)
Тes
(С)
Комфортность P
(гПа)
Po
(гПа)
Тmin
(С)
Tmax
(С)
R
(мм)
R24
(мм)
S
(см)
12 16.06 ЮВ 1 16 км 4/0 2000 м
[]
+24.3 +22.5 90 +32 +32 очень
душно
1014.6 1010.1 +24.3 +30.8
18 16.06 ЮЗ 1 16 км ясно +33.0 +20.6 48 +40 +64 опасность
солнечного
удара
1014.4 1010.0 +24.3 +34.0
21 16.06 ЮЗ 1 16 км ясно +33.4 +20.4 47 +40 +62 опасность
солнечного
удара
1012.5 1008.1
03 17.06 Ю 1 16 км ясно +28.0 +21.8 69 +36 +36 очень
душно
1012.5 1008.1
06 17.06 ЮВ 1 16 км ясно +27.0 +22.0 74 +35 +35 очень
душно
1013.7 1009.3 +24.3 +34.4
09 17.06 ЮВ 1 16 км ясно +27.0 +22.0 74 +35 +35 очень
душно
1013.3 1008.9
15 17.06 ЮВ 1 16 км 8/0 1500 м
[Ac und]
+29.2 +21.9 65 +38 +41 очень
душно
1013.8 1009.4
18 17.06 ЮЗ 2 16 км 5/0 1500 м
[Ac und]
+33.6 +21.3 49 +41 +55 опасность
перегрева
1012.3 1007.9 +25.2 +34.4
06 18.06 В 1 16 км ясно +26.0 +21.5 76 +33 +33 очень
душно
1010.2 1005.8 +25.7 +34.8
09 18.06 В 1 16 км ясно +24.8 +21.4 81 +31 +31 очень
душно
1009.9 1005.5
12 18.06 В 1 16 км ясно +24.4 +21.0 81 +31 +31 очень
душно
1010.6 1006.2 +24.3 +31.7
15 18.06 ЮВ 1 16 км ясно +28.8 +21.4 64 +36 +44 очень
душно
1011.8 1007.3
03 19.06 ЮЗ 1 16 км 6/0 2000 м
[Ac inh]
+28.4 +19.5 59 +34 +34 очень
душно
1008.0 1003.7
06 19.06 ЮВ 1 16 км ясно +26.2 +18.2 61 +31 +31 очень
душно
1007.8 1003.4 +26.0 +35.5
09 19.06 ЮВ 1 16 км ясно +25.5 +20.8 75 +32 +32 очень
душно
1009.1 1004.8
12 19.06 Ю 1 16 км ясно +25.0 +21.3 80 +32 +32 очень
душно
1009.9 1005.5 +24.8 +31.8
18 19.06 Ю 1 16 км ясно +34.4 +20.7 45 +41 +65 опасность
перегрева
1009.9 1005.5 +24.7 +35.8
21 19.06 ЮЗ 2 16 км ясно +33.2 +21.2 49 +41 +59 опасность
перегрева
1008.4 1004.0
03 20.06 ЮЗ 1 16 км ясно +28.6 +20.7 62 +35 +35 очень
душно
1009.3 1005.0
06 20.06 ЮВ 1 16 км ясно +26.0 +20.6 72 +32 +32 очень
душно
1012.0 1007.9 +24.7 +36.8
12 20.06 ЮВ 1 16 км ясно +24.1 +21.8 87 +31 +31 очень
душно
1011.8 1007.3 +23.0 +36.8
15 20.06 В 1 16 км ясно +30.4 +19.1 51 +36 +44 очень
душно
1013.2 1008.7
18 20.06 Ю 1 16 км ясно +33.8 +22.5 52 +43 +67 опасность
перегрева
1011.9 1007.5 +24.0 +34.2
21 20.06 Ю 2 16 км ясно +32.2 +20.0 49 +39 +57 опасность
солнечного
удара
1010.1 1005.7
00 21.06 Ю 2 16 км 8/0 1500 м
[Ac und]
+30.8 +21.6 58 +39 +41 очень
душно
1008.8 1004.5 +24.0 +34.2
03 21.06 Ю 1 16 км ясно +27.2 +21.0 69 +34 +34 очень
душно
1009.5 1005.2
06 21.06 В 1 16 км ясно +25.4 +20.5 74 +31 +31 очень
душно
1011.4 1007.0 +25.3 +34.1
09 21.06 В 1 16 км ясно +24.6 +20.6 78 +31 +31 очень
душно
1010.4 1006.0
12 21.06 В 1 16 км ясно +24.0 +21.7 87 +31 +31 очень
душно
1011.4 1007.0 +23.9 +30.1
15 21.06 ЮВ 1 16 км ясно +29.2 +21.6 64 +37 +45 очень
душно
1012.8 1008.2
18 21.06 Ю 1 16 км ясно +33.6 +20.0 45 +40 +64 опасность
солнечного
удара
1011.4 1006.9 +23.8 +33.7
21 21.06 ЮЗ 1 16 км ясно +32.2 +20.0 49 +39 +60 опасность
солнечного
удара
1010.0 1005.5
00 22.06 ЮЗ 1 16 км ясно +29.8 +19.8 55 +36 +40 очень
душно
1009.8 1005.3 +26.4 +34.2
03 22.06 Ю 1 16 км ясно +26.6 +21.0 71 +33 +33 очень
душно
1011.0 1006.6
06 22.06 ЮВ 1 16 км ясно +25.2 +21.8 81 +32 +32 очень
душно
1012.8 1008.3 +25.1 +34.2
15 22.06 ЮВ 1 16 км ясно +29.6 +22.4 65 +39 +47 очень
душно
1013.4 1008.9
18 22.06 Ю 2 16 км 4/4 1000 м
[Cu hum]
+32.9 +22.0 53 +42 +54 опасность
перегрева
1011.6 1007.2 +24.2 +33.6
21 22.06 ЮЗ 2 16 км ясно +31.4 +22.0 57 +40 +58 опасность
солнечного
удара
1011.5 1007.1
00 23.06 ЮЗ 2 16 км 5/0 2000 м
[]
+30.9 +21.5 57 +39 +42 очень
душно
1009.2 1004.8 +24.2 +33.4
03 23.06 ЮЗ 1 16 км ясно +26.8 +21.9 75 +35 +35 очень
душно
1012.0 1007.6
06 23.06 ЮВ 1 16 км ясно +25.4 +21.9 81 +33 +33 очень
душно
1013.4 1009.0 +25.0 +33.3
09 23.06 ЮВ 1 16 км ясно +24.6 +22.1 86 +32 +32 очень
душно
1013.2 1008.8

 

Местоположение метеостанции Culiacan (Мексика): широта 24.80 долгота -107.40 высота над уровнем моря 39 м.

В архиве по умолчанию представлена погода в Culiacan за последнюю неделю. Архивные данные за месяц целиком и за предыдущие месяцы, начиная с января 2011 года, Вы можете получить, выбрав интересующий диапазон дат из раскрывающегося списка и нажав кнопку "Ввод!".

Внимание! Время в таблицах - всемирное. Для получения местного времени необходимо прибавить поправку, которая в Culiacan равна -7 ч.

Смотрите также архив погоды в соседних городах и на ближайших метеорологических станциях:

Погода в Tepehuanes (Мексика) (180 км)
Погода в Colonia Juan Carras-Co (Мексика) (205 км)
Погода в Choix (Мексика) (229 км)
Погода в Durango (Мексика) (296 км)
Погода в Hidalgo del Parral (Мексика) (298 км)
Погода в La Paz (Мексика) (302 км)
Погода в Ciudad Obregon (Мексика) (377 км)
Погода в Sombrerete (Мексика) (407 км)
Погода в Torreon (Мексика) (411 км)
Погода в Loreto (Мексика) (415 км)

Пояснения к столбцам:

Ветер - указаны скорость ветра в м/с - средняя за 10 мин, порывы в срок и между сроками (в фигурных скобках) и направление, откуда дует ветер: С - северный, СВ - северо-восточный, В - восточный, ЮВ - юго-восточный, Ю - южный, ЮЗ - юго-западный, З - западный, СЗ - северо-западный.
Видимость - горизонтальная дальность видимости в метрах или километрах. При видимости от 1 до 10 км при отсутствии осадков обычно наблюдается дымка, при ухудшении видимости до 1 км и менее - туман. В сухую погоду видимость может ухудшаться дымом, пылью или мглою.
Явления - указаны атмосферные явления, наблюдавшиеся в срок или в последний час перед сроком; фигурными скобками обозначены явления, наблюдавшиеся между сроками (за 1-3 часа до срока); квадратными скобками обозначены град или гололедные отложения с указанием их диаметра в мм.
Облачность - указаны через наклонную черту общая и нижняя облачность в баллах и высота нижней границы облаков в метрах; квадратными скобками обозначены формы облаков: Ci - перистые, Cs - перисто-слоистые, Cc - перисто-кучевые, Ac - высококучевые, As - высокослоистые, Sc - слоисто-кучевые, Ns - слоисто-дождевые, Cu - кучевые, Cb - кучево-дождевые. Подробнее классификацию облаков см. в Атласе облаков (PDF).
T - Температура воздуха - температура, измеренная на высоте 2 м над землей.
Td - Температура точки росы - температура, при понижении до которой содержащийся в воздухе водяной пар достигнет насыщения.
f - Относительная влажность воздуха - влажноcть воздуха, измеренная на высоте 2 м над землей.
Te - Эффективная температура - температура, которую ощущает одетый по сезону человек в тени. Характеристика душности погоды. При расчете учитывается влияние влажности воздуха и скорости ветра на теплоощущения человека.
Tes - Эффективная температура на солнце - температура, которую ощущает человек, с поправкой на солнечный нагрев. Характеристика знойности погоды. Зависит от высоты солнца над горизонтом, облачности и скорости ветра. Ночью, в пасмурную погоду, а также при ветре 12 м/с и более поправка равна нулю.
P - Атмосферное давление - приведенное к уровню моря атмосферное давление.
Po - Атмосферное давление - измеренное на уровне метеостанции атмосферное давление.
Tmin - Минимальная температура - минимум температуры воздуха на высоте 2 м над землей.
Tmax - Максимальная температура - максимум температуры воздуха на высоте 2 м над землей.
R - Количество осадков - Количество выпавших осадков за период времени, мм. При наведении курсора мыши на число - период времени, за который выпало указанное количество осадков.
R24 - Количество осадков - Количество выпавших осадков за 24 часа, мм.
S - Снежный покров - Высота снежного покрова, см. При наведении курсора мыши на число - состояние снежного покрова и степень покрытия местности в баллах.